Weather History for PAFA - February, 2014

Change the Weather History Date:

Tuesday, February 11, 2014

  Actual Average Record
Temperature  
Mean Temperature -20 °F -3 °F  
Max Temperature -10 °F 8 °F 46 °F (2004)
Min Temperature -30 °F -14 °F -53 °F (1932)
Degree Days  
Heating Degree Days 85 68  
Month to date heating degree days 746 765  
Since 1 July heating degree days 8201 9297  
Cooling Degree Days 0 0  
Month to date cooling degree days 0 0  
Year to date cooling degree days 0 0  
Moisture  
Dew Point -31 °F    
Average Humidity 63    
Maximum Humidity 71    
Minimum Humidity 48    
Precipitation  
Precipitation T in 0.02 in 0.86 in (1966)
Month to date precipitation 0.18 0.18  
Year to date precipitation 0.40 0.76  
Snow  
Snow T in 0.30 in 16.00 in (1966)
Month to date snowfall 4.4 3.3  
Since 1 July snowfall 40.2 51.5  
Snow Depth 19.00 in    
Sea Level Pressure  
Sea Level Pressure 30.02 in    
Wind  
Wind Speed 0 mph (NNE)    
Max Wind Speed 4 mph    
Max Gust Speed -    
Visibility 10 miles    
Events      
T = Trace of Precipitation, MM = Missing Value Source: NWS Daily Summary

Daily Weather History Graph

Daily Weather History Graph

Search for Another Location

Airport or City:

Trip Planner

Search our weather history database for the weather conditions in past years. The results will help you decide how hot, cold, wet, or windy it might be!

Date:

Astronomy

Feb. 11, 2014 Rise Set
Actual Time 9:03 AM AKST 5:09 PM AKST
Civil Twilight 8:08 AM AKST 6:03 PM AKST
Nautical Twilight 7:10 AM AKST 7:01 PM AKST
Astronomical Twilight 6:14 AM AKST 7:58 PM AKST
Moon 2:05 PM AKST (2/11) 7:22 AM AKST (2/11)
Length of Visible Light 9h 54m
Length of Day
8h 06m
Waxing Gibbous, 91% of the Moon is Illuminated
Feb 11
Waxing Gibbous
Feb 14
Full
Feb 22
Last Quarter
Feb 28
New
Mar 8
First Quarter

Hourly Weather History & Observations

Time (AKST) Temp. Windchill Dew Point Humidity Pressure Visibility Wind Dir Wind Speed Gust Speed Precip Events Conditions
12:53 AM -25.1 °F - -33.0 °F 66% 30.15 in 10.0 mi Calm Calm - N/A   Clear
1:53 AM -26.0 °F - -34.1 °F 66% 30.14 in 10.0 mi Calm Calm - N/A   Partly Cloudy
2:53 AM -27.0 °F - -35.0 °F 66% 30.12 in 10.0 mi Calm Calm - N/A   Partly Cloudy
3:53 AM -27.9 °F - -38.0 °F 59% 30.11 in 10.0 mi Calm Calm - N/A   Partly Cloudy
4:53 AM -27.9 °F -39.8 °F -36.9 °F 62% 30.10 in 10.0 mi NNE 3.5 mph - N/A   Partly Cloudy
5:53 AM -26.0 °F - -34.1 °F 66% 30.09 in 10.0 mi Calm Calm - N/A   Partly Cloudy
6:53 AM -27.0 °F - -36.0 °F 62% 30.08 in 10.0 mi Calm Calm - N/A   Partly Cloudy
7:53 AM -27.0 °F - -36.0 °F 62% 30.07 in 10.0 mi Calm Calm - N/A   Partly Cloudy
8:53 AM -29.0 °F - -36.9 °F 66% 30.07 in 10.0 mi Calm Calm - N/A   Scattered Clouds
9:53 AM -26.0 °F - -34.1 °F 66% 30.06 in 10.0 mi Calm Calm - N/A   Scattered Clouds
10:53 AM -22.0 °F - -29.9 °F 67% 30.06 in 10.0 mi Calm Calm - N/A   Mostly Cloudy
11:53 AM -18.9 °F - -27.0 °F 66% 30.04 in 10.0 mi Calm Calm - N/A   Mostly Cloudy
12:53 PM -16.1 °F - -24.0 °F 67% 30.03 in 10.0 mi Calm Calm - N/A   Mostly Cloudy
1:53 PM -13.0 °F - -20.9 °F 68% 30.01 in 10.0 mi Calm Calm - N/A   Mostly Cloudy
2:53 PM -11.0 °F - -18.9 °F 68% 29.99 in 10.0 mi Calm Calm - N/A   Mostly Cloudy
3:53 PM -11.9 °F - -20.9 °F 64% 29.98 in 10.0 mi Calm Calm - N/A   Mostly Cloudy
4:53 PM -14.1 °F - -20.9 °F 71% 29.96 in 10.0 mi Calm Calm - N/A   Mostly Cloudy
5:53 PM -20.0 °F - -27.0 °F 70% 29.94 in 10.0 mi Calm Calm - N/A   Mostly Cloudy
6:53 PM -22.0 °F - -31.0 °F 63% 29.93 in 10.0 mi Calm Calm - N/A   Mostly Cloudy
7:53 PM -23.1 °F - -31.0 °F 67% 29.92 in 10.0 mi Calm Calm - N/A   Mostly Cloudy
8:53 PM -24.0 °F - -31.0 °F 70% 29.90 in 10.0 mi Calm Calm - N/A   Mostly Cloudy
9:53 PM -25.1 °F - -34.1 °F 63% 29.89 in 8.0 mi Calm Calm - N/A   Mostly Cloudy
10:53 PM -25.1 °F - -34.1 °F 63% 29.87 in 6.0 mi Calm Calm - N/A   Mostly Cloudy
11:53 PM -24.0 °F - -33.0 °F 63% 29.84 in 6.0 mi Calm Calm - N/A   Mostly Cloudy